NE2X Weather Reports


Display with metric or nautical units.
time (UTC)temp
F
wind
direction
speed
MPH
gust
MPH
rain 1hr
in
rain 24hr
in
rain mn
in
humidity
%
barometer
mb
20260506112706 66 186 3.0 10.0 0.00 0.00 0.00 72 1009.5
20260506111803 66 200 4.0 11.0 0.00 0.00 0.00 73 1009.5
20260506110903 65 190 6.0 17.0 0.00 0.00 0.00 74 1009.3
20260506110004 65 183 4.0 12.0 0.00 0.00 0.00 74 1009.2
20260506105403 65 187 4.0 12.0 0.00 0.00 0.00 75 1009.2
20260506104504 64 192 4.0 11.0 0.00 0.00 0.00 76 1009.2
20260506103603 64 186 4.0 14.0 0.00 0.00 0.00 76 1009.3
20260506102703 64 181 3.0 8.0 0.00 0.00 0.00 77 1009.3
20260506101804 64 192 4.0 14.0 0.00 0.00 0.00 77 1009.2
20260506100904 63 202 3.0 14.0 0.00 0.00 0.00 78 1009.1
20260506100004 63 180 3.0 8.0 0.00 0.00 0.00 79 1009.0
20260506095404 63 182 3.0 7.0 0.00 0.00 0.00 79 1009.0
20260506094504 62 192 2.0 8.0 0.00 0.00 0.00 79 1009.1
20260506093603 63 190 2.0 10.0 0.00 0.00 0.00 79 1009.0
20260506092704 63 187 2.0 7.0 0.00 0.00 0.00 78 1009.1
20260506091803 63 201 2.0 7.0 0.00 0.00 0.00 78 1009.2
20260506090904 63 202 3.0 6.0 0.00 0.00 0.00 77 1009.2
20260506090004 63 180 3.0 9.0 0.00 0.00 0.00 77 1009.2
20260506085425 64 180 3.0 9.0 0.00 0.00 0.00 76 1009.2
20260506084504 64 187 3.0 9.0 0.00 0.00 0.00 76 1009.2
20260506083603 64 196 2.0 7.0 0.00 0.00 0.00 76 1009.3
20260506082725 64 201 2.0 6.0 0.00 0.00 0.00 75 1009.3
20260506081803 64 189 4.0 11.0 0.00 0.00 0.00 75 1009.4
20260506080924 64 195 3.0 8.0 0.00 0.00 0.00 74 1009.3
20260506072703 65 187 3.0 10.0 0.00 0.00 0.00 72 1009.4
20260506071804 65 187 4.0 10.0 0.00 0.00 0.00 71 1009.4
20260506070925 66 172 3.0 9.0 0.00 0.00 0.00 71 1009.5
20260506061824 66 197 3.0 8.0 0.00 0.00 0.00 68 1009.5
20260506060903 66 182 3.0 10.0 0.00 0.00 0.00 67 1009.4
20260506050903 68 174 3.0 10.0 0.00 0.00 0.00 63 1010.1
20260506044524 68 203 3.0 9.0 0.00 0.00 0.00 62 1010.0
20260506043603 68 183 4.0 15.0 0.00 0.00 0.00 61 1010.1
20260506042703 68 191 4.0 16.0 0.00 0.00 0.00 61 1010.1
20260506041804 69 200 4.0 17.0 0.00 0.00 0.00 60 1010.0
20260506040904 69 177 5.0 17.0 0.00 0.00 0.00 60 1009.9
20260506040004 69 196 5.0 17.0 0.00 0.00 0.00 59 1009.9
20260506035404 69 190 4.0 17.0 0.00 0.00 0.00 59 1009.9
20260506034504 69 197 5.0 19.0 0.00 0.00 0.00 59 1010.0
20260506033604 69 189 4.0 16.0 0.00 0.00 0.00 58 1010.0
20260506032704 70 187 5.0 17.0 0.00 0.00 0.00 57 1009.9
20260506031804 70 192 4.0 11.0 0.00 0.00 0.00 57 1009.9
20260506030904 70 196 4.0 14.0 0.00 0.00 0.00 57 1009.9
20260506030005 70 199 5.0 13.0 0.00 0.00 0.00 56 1009.8
20260506025404 70 187 4.0 11.0 0.00 0.00 0.00 56 1009.7
20260506024503 71 184 5.0 21.0 0.00 0.00 0.00 55 1009.8
20260506023604 71 190 6.0 14.0 0.00 0.00 0.00 55 1009.9
20260506022703 71 189 5.0 14.0 0.00 0.00 0.00 54 1009.9
20260506021803 72 187 6.0 15.0 0.00 0.00 0.00 53 1009.8
20260506020903 72 194 6.0 17.0 0.00 0.00 0.00 52 1009.8
20260506020004 73 181 6.0 15.0 0.00 0.00 0.00 50 1009.8
20260506015404 73 187 5.0 14.0 0.00 0.00 0.00 49 1009.6
20260506014503 74 189 5.0 14.0 0.00 0.00 0.00 46 1009.6
20260506013603 75 180 5.0 14.0 0.00 0.00 0.00 44 1009.4
20260506012703 75 181 5.0 20.0 0.00 0.00 0.00 43 1009.4
20260506011824 75 188 4.0 20.0 0.00 0.00 0.00 42 1009.2
20260506010904 76 190 4.0 16.0 0.00 0.00 0.00 42 1009.2
20260506010024 76 191 4.0 14.0 0.00 0.00 0.00 42 1009.1
20260506005403 76 201 4.0 14.0 0.00 0.00 0.00 41 1009.0
20260506004503 76 186 3.0 14.0 0.00 0.00 0.00 41 1008.8
20260506003605 77 187 3.0 11.0 0.00 0.00 0.00 40 1008.9
20260506002703 77 191 5.0 12.0 0.00 0.00 0.00 38 1008.8
20260506001803 77 186 4.0 11.0 0.00 0.00 0.00 37 1008.7
20260506000904 78 196 3.0 12.0 0.00 0.00 0.00 36 1008.7
20260506000026 78 204 4.0 15.0 0.00 0.00 0.00 35 1008.4
20260505235425 78 215 3.0 10.0 0.00 0.00 0.00 34 1008.5
20260505234504 78 218 5.0 14.0 0.00 0.00 0.00 34 1008.4
20260505233625 79 211 5.0 15.0 0.00 0.00 0.00 34 1008.3
20260505232726 79 185 4.0 15.0 0.00 0.00 0.00 34 1008.4
20260505231804 79 184 5.0 16.0 0.00 0.00 0.00 32 1008.1
20260505230904 79 184 4.0 15.0 0.00 0.00 0.00 32 1008.1
20260505230004 80 181 3.0 16.0 0.00 0.00 0.00 30 1008.0
20260505225405 80 199 4.0 16.0 0.00 0.00 0.00 30 1007.9
20260505224504 80 206 5.0 19.0 0.00 0.00 0.00 29 1007.7
20260505223604 80 190 5.0 12.0 0.00 0.00 0.00 29 1007.5
20260505222704 81 211 6.0 14.0 0.00 0.00 0.00 29 1007.6
20260505221804 81 236 4.0 15.0 0.00 0.00 0.00 30 1007.6
20260505220904 81 262 3.0 14.0 0.00 0.00 0.00 31 1007.6
20260505220004 81 263 4.0 17.0 0.00 0.00 0.00 30 1007.5
20260505215404 81 230 5.0 15.0 0.00 0.00 0.00 30 1007.4
20260505214504 81 215 4.0 10.0 0.00 0.00 0.00 30 1007.4
20260505213604 82 257 6.0 19.0 0.00 0.00 0.00 29 1007.3
20260505212725 82 293 5.0 19.0 0.00 0.00 0.00 29 1007.2
20260505211804 83 218 5.0 19.0 0.00 0.00 0.00 29 1007.2
20260505210904 83 201 7.0 23.0 0.00 0.00 0.00 29 1007.1
20260505210004 83 220 5.0 16.0 0.00 0.00 0.00 30 1007.1
20260505205404 83 222 5.0 16.0 0.00 0.00 0.00 29 1006.9
20260505204503 84 227 5.0 17.0 0.00 0.00 0.00 29 1006.9
20260505203604 84 238 5.0 15.0 0.00 0.00 0.00 31 1007.0
20260505202704 84 209 5.0 17.0 0.00 0.00 0.00 30 1007.2
20260505201803 83 203 6.0 16.0 0.00 0.00 0.00 30 1007.2
20260505200904 83 204 6.0 18.0 0.00 0.00 0.00 30 1007.3
20260505200025 83 197 7.0 22.0 0.00 0.00 0.00 30 1007.3
20260505195404 83 196 7.0 20.0 0.00 0.00 0.00 30 1007.4
20260505194504 83 195 7.0 24.0 0.00 0.00 0.00 30 1007.4
20260505193604 83 206 7.0 21.0 0.00 0.00 0.00 30 1007.6
20260505192727 83 201 8.0 20.0 0.00 0.00 0.00 30 1007.8
20260505191804 83 176 8.0 24.0 0.00 0.00 0.00 32 1007.8
20260505190904 83 194 6.0 19.0 0.00 0.00 0.00 31 1008.0
20260505190025 83 184 7.0 19.0 0.00 0.00 0.00 32 1008.1
20260505185404 83 184 7.0 20.0 0.00 0.00 0.00 33 1008.2
20260505184525 83 188 6.0 20.0 0.00 0.00 0.00 32 1008.7
20260505183605 83 200 6.0 17.0 0.00 0.00 0.00 35 1008.6
20260505182703 82 190 6.0 19.0 0.00 0.00 0.00 37 1008.6
20260505181803 82 194 7.0 21.0 0.00 0.00 0.00 36 1008.6
20260505180905 82 190 9.0 19.0 0.00 0.00 0.00 36 1008.7
20260505180004 82 173 8.0 30.0 0.00 0.00 0.00 35 1008.9
20260505175404 82 176 7.0 20.0 0.00 0.00 0.00 36 1008.6
20260505174503 82 184 7.0 19.0 0.00 0.00 0.00 35 1008.8
20260505173603 82 182 5.0 16.0 0.00 0.00 0.00 38 1008.9
20260505172724 82 185 3.0 11.0 0.00 0.00 0.00 39 1009.1
20260505171803 82 198 5.0 16.0 0.00 0.00 0.00 39 1009.2
20260505170924 82 203 3.0 16.0 0.00 0.00 0.00 40 1009.2
20260505170003 81 182 4.0 18.0 0.00 0.00 0.00 39 1009.3
20260505165403 80 183 6.0 18.0 0.00 0.00 0.00 40 1009.5
20260505164504 80 199 4.0 14.0 0.00 0.00 0.00 41 1009.6
20260505163605 81 186 3.0 9.0 0.00 0.00 0.00 41 1009.7
20260505162703 80 225 3.0 10.0 0.00 0.00 0.00 42 1009.9
20260505161803 79 203 5.0 17.0 0.00 0.00 0.00 41 1010.1
20260505160924 79 200 4.0 14.0 0.00 0.00 0.00 44 1010.0
20260505152704 77 185 3.0 9.0 0.00 0.00 0.00 45 1010.7
20260505151803 76 233 3.0 10.0 0.00 0.00 0.00 47 1010.8
20260505150903 76 218 2.0 14.0 0.00 0.00 0.00 49 1010.8
20260505124505 67 184 3.0 9.0 0.00 0.00 0.00 62 1010.7
20260505123604 65 202 4.0 9.0 0.00 0.00 0.00 65 1010.7
20260505122705 64 178 3.0 7.0 0.00 0.00 0.00 69 1010.8
20260505121825 63 190 2.0 7.0 0.00 0.00 0.00 71 1010.9
20260505120904 62 191 2.0 5.0 0.00 0.00 0.00 75 1011.1
20260505120005 60 186 2.0 5.0 0.00 0.00 0.00 78 1011.1
20260505115404 59 194 2.0 5.0 0.00 0.00 0.00 82 1011.1
20260505114504 58 179 1.0 5.0 0.00 0.00 0.00 81 1011.1
20260505113604 58 212 1.0 3.0 0.00 0.00 0.00 81 1011.1